Location: Cheyres
(46.8153°N, 6.7877°E)
Time: 02:51:39
(UTC+00:00)

Cosmos 1743 - Pass Details

Date: 11 May 2021
Orbit: 510 x 525 km, 82.6° (Epoch: 18 June)

Event Time Altitude Azimuth Distance (km) Brightness Sun altitude
Rises 21:08:10 0° 1° (N) 2,652 7.2 -17.7°
Reaches altitude 10° 21:10:36 10° 15° (NNE) 1,762 5.9 -18.0°
Maximum altitude 21:13:51 25° 72° (ENE) 1,078 4.1 -18.3°
Enters shadow 21:14:20 24° 85° (E) 1,098 4.1 -18.3°
